When you browse on this site, cookies collect data to enhance your experience and personalize the content and advertising you see.
Visit our Privacy Policy to learn more. By continuing to use the site, you agree to this use of cookies and data.
  • Em Portugal
  • Lista de países
  • Para 7 dias
  • Temperatura da água
  • Mapas de satélite
  • Mapa do tempo
  • Widgets de tempo
  • user-avatar
    Iniciar Sessão

    Previsão horária em Turnawiec

    Hoje, 26 Junho, Quarta-feira

    Tempo Temperatura Precipitação Vento Pressão Humidade
    00:00 +21°C° 0 mm 2 m/s 748 mmHg 95%
    01:00 +21°C° 0 mm 2 m/s 748 mmHg 96%
    02:00 +22°C° 0 mm 1 m/s 748 mmHg 95%
    03:00 +22°C° 0 mm 1 m/s 747 mmHg 95%
    04:00 +22°C° 0 mm 1 m/s 747 mmHg 95%
    05:00 +23°C° 0 mm 1 m/s 747 mmHg 90%
    06:00 +25°C° 0 mm 1 m/s 747 mmHg 85%
    07:00 +27°C° 0 mm 1 m/s 747 mmHg 79%
    08:00 +28°C° 0 mm 1 m/s 747 mmHg 73%
    09:00 +30°C° 0 mm 1 m/s 747 mmHg 67%
    10:00 +31°C° 0 mm 1 m/s 747 mmHg 61%
    11:00 +32°C° 0 mm 2 m/s 747 mmHg 57%
    12:00 +34°C° 0 mm 2 m/s 746 mmHg 52%
    13:00 +34°C° 0 mm 3 m/s 746 mmHg 48%
    14:00 +34°C° 0 mm 3 m/s 746 mmHg 49%
    15:00 +34°C° 0 mm 3 m/s 745 mmHg 50%
    16:00 +34°C° 0 mm 3 m/s 744 mmHg 52%
    17:00 +33°C° 0 mm 3 m/s 744 mmHg 58%
    18:00 +30°C° 0 mm 3 m/s 744 mmHg 64%
    19:00 +28°C° 0 mm 3 m/s 744 mmHg 70%
    20:00 +28°C° 0 mm 4 m/s 743 mmHg 72%
    21:00 +27°C° 0 mm 4 m/s 743 mmHg 74%
    22:00 +26°C° 0 mm 4 m/s 743 mmHg 76%
    23:00 +26°C° 0.1 mm 5 m/s 743 mmHg 78%

    Amanhã, 27 Junho, Quinta-feira

    Tempo Temperatura Precipitação Vento Pressão Humidade
    00:00 +25°C° 0.1 mm 5 m/s 743 mmHg 79%
    01:00 +25°C° 0.1 mm 5 m/s 743 mmHg 81%
    02:00 +25°C° 0.8 mm 5 m/s 742 mmHg 84%
    03:00 +23°C° 0.8 mm 5 m/s 742 mmHg 88%
    04:00 +22°C° 0.8 mm 5 m/s 742 mmHg 91%
    05:00 +23°C° 0.2 mm 5 m/s 742 mmHg 90%
    06:00 +23°C° 0.2 mm 5 m/s 742 mmHg 88%
    07:00 +23°C° 0.2 mm 5 m/s 742 mmHg 87%
    08:00 +23°C° 0 mm 6 m/s 742 mmHg 80%
    09:00 +24°C° 0 mm 7 m/s 742 mmHg 73%
    10:00 +24°C° 0 mm 8 m/s 742 mmHg 65%
    11:00 +24°C° 0 mm 8 m/s 742 mmHg 58%
    12:00 +26°C° 0 mm 8 m/s 742 mmHg 52%
    13:00 +26°C° 0 mm 8 m/s 742 mmHg 45%
    14:00 +24°C° 0 mm 8 m/s 742 mmHg 46%
    15:00 +24°C° 0 mm 7 m/s 741 mmHg 48%
    16:00 +23°C° 0 mm 7 m/s 741 mmHg 49%
    17:00 +22°C° 0 mm 6 m/s 741 mmHg 56%
    18:00 +21°C° 0 mm 5 m/s 741 mmHg 62%
    19:00 +19°C° 0 mm 5 m/s 741 mmHg 69%
    20:00 +18°C° 0 mm 4 m/s 741 mmHg 72%
    21:00 +17°C° 0 mm 4 m/s 742 mmHg 75%
    22:00 +17°C° 0 mm 4 m/s 742 mmHg 78%
    23:00 +15°C° 0 mm 4 m/s 742 mmHg 82%

    Depois de amanhã, 28 Junho, Sexta-feira

    Tempo Temperatura Precipitação Vento Pressão Humidade
    00:00 +14°C° 0 mm 4 m/s 743 mmHg 86%
    01:00 +14°C° 0 mm 4 m/s 743 mmHg 91%
    02:00 +13°C° 0 mm 4 m/s 743 mmHg 92%
    03:00 +13°C° 0 mm 4 m/s 743 mmHg 94%
    04:00 +12°C° 0 mm 4 m/s 743 mmHg 96%
    05:00 +13°C° 0 mm 4 m/s 743 mmHg 86%
    06:00 +14°C° 0 mm 4 m/s 743 mmHg 77%
    07:00 +16°C° 0 mm 3 m/s 744 mmHg 67%
    08:00 +18°C° 0 mm 4 m/s 744 mmHg 62%
    09:00 +19°C° 0 mm 4 m/s 744 mmHg 57%
    10:00 +20°C° 0 mm 5 m/s 744 mmHg 51%
    11:00 +21°C° 0 mm 4 m/s 743 mmHg 51%
    12:00 +21°C° 0 mm 4 m/s 743 mmHg 51%
    13:00 +22°C° 0 mm 4 m/s 743 mmHg 51%
    14:00 +22°C° 0.1 mm 4 m/s 743 mmHg 54%
    15:00 +22°C° 0.1 mm 5 m/s 743 mmHg 57%
    16:00 +22°C° 0.1 mm 5 m/s 743 mmHg 60%
    17:00 +20°C° 0.3 mm 4 m/s 742 mmHg 67%
    18:00 +19°C° 0.3 mm 4 m/s 742 mmHg 74%
    19:00 +18°C° 0.3 mm 3 m/s 742 mmHg 81%
    20:00 +16°C° 0 mm 3 m/s 743 mmHg 81%
    21:00 +14°C° 0 mm 3 m/s 743 mmHg 81%
    22:00 +12°C° 0 mm 3 m/s 744 mmHg 80%
    23:00 +11°C° 0 mm 3 m/s 744 mmHg 82%

    29 Junho, Sábado

    Tempo Temperatura Precipitação Vento Pressão Humidade
    00:00 +11°C° 0 mm 3 m/s 744 mmHg 83%
    01:00 +10°C° 0 mm 3 m/s 744 mmHg 84%
    02:00 +10°C° 0 mm 3 m/s 744 mmHg 83%
    03:00 +9°C° 0 mm 3 m/s 744 mmHg 83%
    04:00 +9°C° 0 mm 2 m/s 744 mmHg 82%
    05:00 +11°C° 0 mm 3 m/s 745 mmHg 76%
    06:00 +13°C° 0 mm 3 m/s 745 mmHg 69%
    07:00 +15°C° 0 mm 4 m/s 745 mmHg 63%
    08:00 +18°C° 0 mm 4 m/s 745 mmHg 59%
    09:00 +19°C° 0 mm 4 m/s 745 mmHg 56%
    10:00 +21°C° 0 mm 5 m/s 745 mmHg 52%
    11:00 +21°C° 0 mm 5 m/s 745 mmHg 51%
    12:00 +22°C° 0 mm 5 m/s 745 mmHg 50%
    13:00 +23°C° 0 mm 5 m/s 744 mmHg 49%
    14:00 +23°C° 0 mm 4 m/s 744 mmHg 50%
    15:00 +23°C° 0 mm 4 m/s 744 mmHg 50%
    16:00 +23°C° 0 mm 4 m/s 744 mmHg 51%
    17:00 +22°C° 0 mm 3 m/s 744 mmHg 57%
    18:00 +21°C° 0 mm 2 m/s 744 mmHg 62%
    19:00 +21°C° 0 mm 1 m/s 744 mmHg 68%
    20:00 +20°C° 0 mm 1 m/s 744 mmHg 70%
    21:00 +18°C° 0 mm 1 m/s 744 mmHg 71%
    22:00 +16°C° 0 mm 1 m/s 744 mmHg 73%
    23:00 +16°C° 0 mm 2 m/s 744 mmHg 74%

    30 Junho, Domingo

    Tempo Temperatura Precipitação Vento Pressão Humidade
    00:00 +15°C° 0 mm 2 m/s 744 mmHg 74%
    01:00 +15°C° 0 mm 2 m/s 744 mmHg 74%
    02:00 +15°C° 0 mm 2 m/s 744 mmHg 75%
    03:00 +14°C° 0 mm 2 m/s 744 mmHg 77%
    04:00 +14°C° 0 mm 2 m/s 744 mmHg 78%
    05:00 +16°C° 0 mm 2 m/s 744 mmHg 73%
    06:00 +18°C° 0 mm 2 m/s 744 mmHg 68%
    07:00 +20°C° 0 mm 2 m/s 744 mmHg 64%
    08:00 +23°C° 0 mm 2 m/s 744 mmHg 58%
    09:00 +25°C° 0 mm 2 m/s 744 mmHg 52%
    10:00 +26°C° 0 mm 2 m/s 744 mmHg 47%
    11:00 +27°C° 0 mm 2 m/s 744 mmHg 45%
    12:00 +28°C° 0 mm 2 m/s 744 mmHg 43%
    13:00 +29°C° 0 mm 2 m/s 743 mmHg 42%
    14:00 +29°C° 0 mm 2 m/s 743 mmHg 42%
    15:00 +29°C° 0 mm 2 m/s 743 mmHg 43%
    16:00 +29°C° 0 mm 2 m/s 743 mmHg 43%
    17:00 +28°C° 0 mm 2 m/s 742 mmHg 51%
    18:00 +26°C° 0 mm 3 m/s 742 mmHg 59%
    19:00 +25°C° 0 mm 3 m/s 742 mmHg 67%
    20:00 +22°C° 0 mm 3 m/s 742 mmHg 70%
    21:00 +21°C° 0 mm 2 m/s 742 mmHg 74%
    22:00 +19°C° 0 mm 2 m/s 742 mmHg 77%
    23:00 +19°C° 0 mm 2 m/s 742 mmHg 80%

    1 Julho, Segunda-feira

    Tempo Temperatura Precipitação Vento Pressão Humidade
    00:00 +18°C° 0 mm 2 m/s 741 mmHg 82%
    01:00 +18°C° 0 mm 3 m/s 741 mmHg 84%
    02:00 +18°C° 0 mm 3 m/s 741 mmHg 85%
    03:00 +17°C° 0 mm 3 m/s 741 mmHg 87%
    04:00 +17°C° 0 mm 3 m/s 741 mmHg 88%
    05:00 +19°C° 0 mm 3 m/s 741 mmHg 81%
    06:00 +21°C° 0 mm 3 m/s 741 mmHg 74%
    07:00 +23°C° 0 mm 4 m/s 741 mmHg 67%
    08:00 +25°C° 0 mm 4 m/s 741 mmHg 63%
    09:00 +27°C° 0 mm 4 m/s 741 mmHg 60%
    10:00 +28°C° 0 mm 4 m/s 741 mmHg 57%
    11:00 +29°C° 0 mm 4 m/s 741 mmHg 55%
    12:00 +30°C° 0 mm 4 m/s 740 mmHg 53%
    13:00 +31°C° 0 mm 3 m/s 740 mmHg 51%
    14:00 +32°C° 0 mm 4 m/s 740 mmHg 51%
    15:00 +33°C° 0 mm 4 m/s 739 mmHg 52%
    16:00 +33°C° 0 mm 4 m/s 739 mmHg 52%
    17:00 +29°C° 1.5 mm 5 m/s 738 mmHg 64%
    18:00 +26°C° 1.5 mm 5 m/s 738 mmHg 76%
    19:00 +22°C° 1.5 mm 6 m/s 738 mmHg 88%
    20:00 +21°C° 0.8 mm 5 m/s 738 mmHg 89%
    21:00 +20°C° 0.8 mm 4 m/s 738 mmHg 90%
    22:00 +20°C° 0.8 mm 3 m/s 738 mmHg 92%
    23:00 +19°C° 0.6 mm 3 m/s 738 mmHg 93%
    Mostrar mais